This demonstration page uses our WeatherBlox Daily Observations layout. Learn more.

Left ArrowRight Arrow

41.55636, -103.73856

Hourly Observations for July 16, 2018

Temp ( °F °C ) Dew Point ( °F °C ) Humidity (%) Winds ( mph kmh ) Pressure ( in mb ) Visibility ( mi km ) Precip ( " mm )
12:58 am 00:58 Clear 57 14 55 13 94 94 SW 8 13 30.14 1021 10 16 N/A
1:58 am 01:58 Clear 57 13.8 55 12.8 94 94 SW 7 11 30.14 1021 10 16 N/A
2:58 am 02:58 Clear 57 14 55 13 94 94 SSW 10 17 30.12 1020 10 16 N/A
3:58 am 03:58 Clear 56 13.4 55 12.5 94 94 SSW 8 13 30.13 1020 10 16 N/A
4:58 am 04:58 Clear with Mist and Fog 55 13 55 13 100 100 SW 5 7 30.13 1020 5 8 N/A
5:58 am 05:58 Mostly Cloudy with Mist and Fog 57 13.9 56 13.5 97 97 SSW 6 9 30.14 1021 4 6 0.01 0.25
6:58 am 06:58 Partly Cloudy 61 16 59 15 94 94 SSW 8 13 30.12 1020 7 11 N/A
7:58 am 07:58 Mostly Cloudy 64 17.7 60 15.7 88 88 S 8 13 30.13 1020 10 16 N/A
8:58 am 08:58 Cloudy 66 18.8 62 16.4 86 86 SW 8 13 30.15 1021 10 16 N/A
9:58 am 09:58 Cloudy 69 20.6 63 17.2 81 81 SSW 9 15 30.14 1021 10 16 N/A
10:58 am 10:58 Mostly Cloudy 72 22.2 62 16.8 72 72 S 9 15 30.12 1020 10 16 N/A
11:58 am 11:58 Partly Cloudy 77 25 62 16.5 59 59 SSW 10 17 30.11 1020 10 16 N/A
12:58 pm 12:58 Mostly Sunny 79 26.1 62 16.4 55 55 S 13 20 30.09 1019 10 16 N/A
1:58 pm 13:58 Mostly Sunny 80 26.7 60 15.8 51 51 S 3 6 30.09 1019 10 16 N/A
5:56 pm 17:56 Sunny 85 29.2 57 13.7 39 39 S 9 15 30.01 1016 10 16 N/A
6:58 pm 18:58 Sunny 83 28.6 57 13.8 40 40 SE 10 17 29.98 1015 10 16 N/A
7:58 pm 19:58 Mostly Sunny 77 25 58 14.6 53 53 SE 8 13 30.00 1016 10 16 N/A
8:58 pm 20:58 Mostly Cloudy 75 23.8 60 15.4 59 59 SSE 7 11 30.04 1017 10 16 N/A
9:58 pm 21:58 Mostly Cloudy with Strong Thunderstorms 61 16.3 60 15.3 94 94 WSW 10 17 30.17 1022 3 4 0.45 11.43
10:58 pm 22:58 Mostly Cloudy 58 14.6 56 13.6 94 94 ENE 22 35 30.13 1020 10 16 0.17 4.32
11:58 pm 23:58 Mostly Cloudy 59 15.1 57 13.9 93 93 E 15 24 30.11 1020 10 16 N/A

Powered by AerisWeather